EW8829 Weather Reports


time (UTC)temp
C
wind
direction
speed
KPH
gust
KPH
rain 1hr
cm
rain 24hr
cm
rain mn
cm
humidity
%
barometer
mb
20260831132320 17 109 3.2 3.2 0.00 0.00 0.00 96 1019.8
20260831131814 17 105 1.6 3.2 0.00 0.00 0.00 96 1019.9
20260831131311 17 87 0.0 3.2 0.00 0.00 0.00 96 1020.2
20260831130805 17 140 0.0 1.6 0.00 0.00 0.00 96 1020.1
20260831130301 17 110 0.0 1.6 0.00 0.00 0.00 96 1020.1
20260831125800 17 89 0.0 0.0 0.00 0.00 0.00 97 1020.0
20260831125256 17 44 0.0 1.6 0.00 0.00 0.00 98 1020.1
20260831124755 17 105 1.6 3.2 0.00 0.00 0.00 98 1020.0
20260831124252 17 106 3.2 4.8 0.00 0.00 0.00 98 1020.0
20260831123752 16 43 1.6 3.2 0.00 0.00 0.00 99 1020.0
20260831123251 16 45 1.6 3.2 0.00 0.00 0.00 99 1019.8
20260831122746 16 20 3.2 4.8 0.00 0.00 0.00 99 1020.0
20260831122242 16 86 3.2 4.8 0.00 0.00 0.00 99 1019.9
20260831121741 15 83 3.2 3.2 0.00 0.00 0.00 99 1020.1
20260831121237 15 71 3.2 3.2 0.00 0.00 0.00 99 1020.0
20260831120732 15 82 0.0 3.2 0.00 0.00 0.00 99 1020.3
20260831120227 15 82 1.6 1.6 0.00 0.00 0.00 99 1020.4
20260831115722 15 32 3.2 3.2 0.00 0.00 0.00 99 1020.2
20260831115219 15 53 3.2 3.2 0.00 0.00 0.00 99 1020.3
20260831114718 15 52 3.2 3.2 0.00 0.00 0.00 99 1020.4
20260831114217 15 53 1.6 3.2 0.00 0.00 0.00 99 1020.1
20260831113713 15 55 3.2 3.2 0.00 0.00 0.00 99 1020.1
20260831113212 15 31 1.6 3.2 0.00 0.00 0.00 99 1020.2
20260831112707 15 41 3.2 3.2 0.00 0.00 0.00 99 1019.9
20260831112202 15 58 0.0 1.6 0.00 0.00 0.00 99 1020.2
20260831111657 15 25 3.2 3.2 0.00 0.00 0.00 99 1020.0
20260831111154 15 89 3.2 3.2 0.00 0.00 0.00 99 1020.3
20260831110649 15 70 1.6 3.2 0.00 0.00 0.00 99 1020.1
20260831110144 15 43 1.6 3.2 0.00 0.00 0.00 99 1020.0
20260831105643 15 45 3.2 3.2 0.00 0.00 0.00 99 1019.8
20260831105138 15 27 3.2 3.2 0.00 0.00 0.00 99 1019.7
20260831104633 15 51 0.0 3.2 0.00 0.00 0.00 99 1019.5
20260831104130 15 60 3.2 3.2 0.00 0.00 0.00 99 1019.4
20260831103625 15 78 1.6 3.2 0.00 0.00 0.00 99 1019.6
20260831103120 15 45 1.6 3.2 0.00 0.00 0.00 99 1019.4
20260831102615 15 48 1.6 3.2 0.00 0.00 0.00 99 1019.2
20260831102110 15 19 0.0 1.6 0.00 0.00 0.00 99 1019.4
20260831101609 15 34 1.6 3.2 0.00 0.00 0.00 99 1019.5
20260831101105 15 38 3.2 3.2 0.00 0.00 0.00 99 1019.3
20260831100601 15 65 1.6 3.2 0.00 0.00 0.00 99 1019.5
20260831100052 15 15 1.6 3.2 0.00 0.00 0.00 99 1019.6
20260831095549 15 78 3.2 4.8 0.00 0.00 0.00 99 1019.6
20260831095044 15 29 3.2 4.8 0.00 0.00 0.00 99 1019.6
20260831094540 15 66 3.2 3.2 0.00 0.00 0.00 99 1019.3
20260831094036 15 59 0.0 3.2 0.00 0.00 0.00 99 1019.4
20260831093531 15 52 3.2 3.2 0.00 0.00 0.00 99 1019.4
20260831093027 15 12 0.0 3.2 0.00 0.00 0.00 99 1019.7
20260831092522 15 322 0.0 1.6 0.00 0.00 0.00 99 1019.5
20260831092018 15 87 1.6 3.2 0.00 0.00 0.00 99 1019.8
20260831091513 15 84 3.2 3.2 0.00 0.00 0.00 99 1019.7
20260831091009 15 51 1.6 3.2 0.00 0.00 0.00 99 1019.7
20260831090504 15 101 1.6 3.2 0.00 0.00 0.00 99 1019.5
20260831090000 15 37 3.2 3.2 0.00 0.00 0.00 99 1019.5
20260831085455 15 42 3.2 3.2 0.00 0.00 0.00 99 1019.7
20260831084954 14 63 1.6 3.2 0.00 0.00 0.00 99 1019.5
20260831084450 14 42 3.2 3.2 0.00 0.00 0.00 99 1019.3
20260831083947 15 25 3.2 3.2 0.00 0.00 0.00 99 1019.1
20260831083442 14 35 3.2 4.8 0.00 0.00 0.00 99 1019.1
20260831082941 14 27 3.2 3.2 0.00 0.00 0.00 99 1019.5
20260831082436 15 37 3.2 3.2 0.00 0.00 0.00 99 1019.6
20260831081931 14 89 3.2 3.2 0.00 0.00 0.00 99 1019.5
20260831081427 15 68 0.0 3.2 0.00 0.00 0.00 99 1019.6
20260831080923 15 100 3.2 3.2 0.00 0.00 0.00 99 1019.3
20260831080422 15 48 1.6 3.2 0.00 0.00 0.00 99 1019.1
20260831075918 15 22 0.0 1.6 0.00 0.00 0.00 99 1019.2
20260831075414 15 83 3.2 3.2 0.00 0.00 0.00 99 1019.2
20260831074909 15 89 1.6 3.2 0.00 0.00 0.00 99 1019.4
20260831074408 15 75 3.2 3.2 0.00 0.00 0.00 99 1019.4
20260831073903 15 21 1.6 3.2 0.00 0.00 0.00 99 1019.4
20260831073402 15 50 0.0 1.6 0.00 0.00 0.00 99 1019.4
20260831072857 15 53 0.0 1.6 0.00 0.00 0.00 99 1019.2
20260831072353 16 11 1.6 3.2 0.00 0.00 0.00 99 1019.2
20260831071849 16 37 1.6 3.2 0.00 0.00 0.00 99 1019.5
20260831071348 16 43 3.2 3.2 0.00 0.00 0.00 99 1019.4
20260831070843 16 39 1.6 3.2 0.00 0.00 0.00 99 1019.4
20260831070342 16 28 3.2 3.2 0.00 0.00 0.00 99 1019.4
20260831065841 16 67 3.2 4.8 0.00 0.00 0.00 99 1019.4
20260831065339 16 21 1.6 1.6 0.00 0.00 0.00 99 1019.4
20260831064834 16 73 1.6 3.2 0.00 0.00 0.00 99 1019.3
20260831064330 16 95 1.6 1.6 0.00 0.00 0.00 99 1019.3
20260831063826 16 310 0.0 1.6 0.00 0.00 0.00 99 1019.3
20260831063326 16 50 1.6 1.6 0.00 0.00 0.00 99 1019.0
20260831062826 16 58 0.0 3.2 0.00 0.00 0.00 99 1019.4
20260831062322 17 58 1.6 3.2 0.00 0.00 0.00 99 1019.5
20260831061821 17 64 1.6 1.6 0.00 0.00 0.00 99 1019.3
20260831061320 17 89 0.0 1.6 0.00 0.00 0.00 99 1019.6
20260831060816 17 66 0.0 0.0 0.00 0.00 0.00 99 1019.6
20260831060310 17 50 0.0 1.6 0.00 0.00 0.00 98 1019.8
20260831055809 17 43 0.0 3.2 0.00 0.00 0.00 98 1019.7
20260831055306 17 94 3.2 3.2 0.00 0.00 0.00 98 1019.7
20260831054800 17 89 0.0 0.0 0.00 0.00 0.00 98 1019.7
20260831054255 17 37 0.0 0.0 0.00 0.00 0.00 98 1019.6
20260831053754 17 85 0.0 1.6 0.00 0.00 0.00 98 1019.8
20260831053253 17 89 1.6 3.2 0.00 0.00 0.00 98 1019.9
20260831052747 17 22 0.0 0.0 0.00 0.00 0.00 98 1019.8
20260831052247 17 44 1.6 3.2 0.00 0.00 0.00 97 1019.9
20260831051745 17 82 1.6 3.2 0.00 0.00 0.00 97 1019.5
20260831051244 17 50 0.0 1.6 0.00 0.00 0.00 97 1020.0
20260831050739 17 31 0.0 1.6 0.00 0.00 0.00 97 1019.8
20260831050237 17 89 1.6 1.6 0.00 0.00 0.00 97 1019.8
20260831045732 17 55 0.0 1.6 0.00 0.00 0.00 97 1020.0
20260831045227 17 48 0.0 1.6 0.00 0.00 0.00 97 1019.7
20260831044721 17 103 0.0 0.0 0.00 0.00 0.00 97 1019.9
20260831044211 17 81 0.0 1.6 0.00 0.00 0.00 97 1019.9
20260831043707 17 89 0.0 0.0 0.00 0.00 0.00 97 1019.9
20260831043202 17 47 1.6 1.6 0.00 0.00 0.00 97 1020.0
20260831042701 17 297 0.0 1.6 0.00 0.00 0.00 97 1019.8
20260831042156 17 77 0.0 1.6 0.00 0.00 0.00 96 1020.0
20260831041650 17 88 1.6 1.6 0.00 0.00 0.00 96 1019.8
20260831041144 17 76 0.0 3.2 0.00 0.00 0.00 96 1019.7
20260831040640 17 22 0.0 0.0 0.00 0.00 0.00 96 1019.8
20260831040138 17 16 1.6 1.6 0.00 0.00 0.00 96 1019.6
20260831035638 17 43 1.6 1.6 0.00 0.00 0.00 96 1019.8
20260831035137 17 60 0.0 1.6 0.00 0.00 0.00 96 1019.7
20260831034636 18 89 1.6 3.2 0.00 0.00 0.00 96 1019.7
20260831034133 18 37 0.0 0.0 0.00 0.00 0.00 95 1020.1
20260831033628 18 47 0.0 3.2 0.00 0.00 0.00 96 1019.8
20260831033123 18 37 0.0 1.6 0.00 0.00 0.00 96 1019.6
20260831032622 18 77 1.6 1.6 0.00 0.00 0.00 95 1019.7
20260831032118 18 89 0.0 0.0 0.00 0.00 0.00 95 1019.7
20260831031618 18 89 1.6 1.6 0.00 0.00 0.00 95 1019.9
20260831031117 18 322 0.0 0.0 0.00 0.00 0.00 95 1019.9
20260831030616 18 37 0.0 0.0 0.00 0.00 0.00 95 1019.7
20260831030116 18 17 1.6 1.6 0.00 0.00 0.00 94 1019.7
20260831025614 18 29 1.6 1.6 0.00 0.00 0.00 94 1019.6
20260831025109 18 357 0.0 1.6 0.00 0.00 0.00 94 1019.8
20260831024606 18 72 1.6 3.2 0.00 0.00 0.00 94 1019.8
20260831024104 18 61 1.6 1.6 0.00 0.00 0.00 93 1019.7
20260831023602 18 309 0.0 0.0 0.00 0.00 0.00 92 1019.8
20260831023102 18 311 0.0 1.6 0.00 0.00 0.00 93 1019.7
20260831022556 18 22 0.0 0.0 0.00 0.00 0.00 92 1019.6
20260831022052 18 82 0.0 1.6 0.00 0.00 0.00 91 1019.8
20260831021550 18 22 0.0 1.6 0.00 0.00 0.00 92 1019.8
20260831021047 18 32 0.0 1.6 0.00 0.00 0.00 92 1019.8
20260831020542 18 66 0.0 3.2 0.00 0.00 0.00 90 1019.6
20260831020037 18 45 1.6 1.6 0.00 0.00 0.00 91 1019.8
20260831015532 18 55 0.0 3.2 0.00 0.00 0.00 90 1019.7
20260831015027 18 50 0.0 3.2 0.00 0.00 0.00 90 1019.7
20260831014522 18 64 1.6 3.2 0.00 0.00 0.00 89 1019.6
20260831014018 18 41 0.0 3.2 0.00 0.00 0.00 90 1019.7
20260831013514 19 30 1.6 3.2 0.00 0.00 0.00 88 1019.7
20260831013008 19 33 0.0 3.2 0.00 0.00 0.00 88 1019.7
20260831012503 19 328 1.6 3.2 0.00 0.00 0.00 87 1019.7
20260831012002 19 312 1.6 3.2 0.00 0.00 0.00 88 1019.6
20260831011451 18 129 0.0 4.8 0.00 0.00 0.00 89 1019.5
20260831010948 18 37 0.0 3.2 0.00 0.00 0.00 90 1019.3
20260831010447 19 89 1.6 3.2 0.00 0.00 0.00 90 1019.6
20260831005943 19 84 3.2 3.2 0.00 0.00 0.00 89 1019.2
20260831005439 19 89 1.6 3.2 0.00 0.00 0.00 89 1019.2
20260831004938 19 121 0.0 3.2 0.00 0.00 0.00 88 1019.3
20260831004435 19 93 1.6 1.6 0.00 0.00 0.00 89 1019.4
20260831003930 19 266 3.2 4.8 0.00 0.00 0.00 89 1019.1
20260831003426 19 141 0.0 1.6 0.00 0.00 0.00 91 1019.2
20260831002925 19 245 3.2 4.8 0.00 0.00 0.00 91 1019.1
20260831002424 18 315 0.0 0.0 0.00 0.00 0.00 92 1018.9
20260831001920 18 322 0.0 1.6 0.00 0.00 0.00 93 1018.9
20260831001415 18 328 1.6 1.6 0.00 0.00 0.00 94 1018.9
20260831000912 19 37 0.0 0.0 0.00 0.00 0.00 93 1018.7
20260831000410 19 11 0.0 0.0 0.00 0.00 0.00 92 1018.7
20260830235906 19 309 0.0 1.6 0.00 0.00 0.00 93 1018.4
20260830235401 19 28 1.6 3.2 0.00 0.00 0.00 92 1018.3
20260830234856 19 309 0.0 1.6 0.00 0.00 0.00 93 1018.3
20260830234351 19 347 0.0 0.0 0.00 0.00 0.00 93 1018.3
20260830233848 19 37 0.0 1.6 0.00 0.00 0.00 92 1018.4
20260830233343 19 301 1.6 1.6 0.00 0.00 0.00 93 1018.2
20260830232838 19 345 0.0 1.6 0.00 0.00 0.00 92 1018.3
20260830232334 19 343 0.0 1.6 0.00 0.00 0.00 93 1018.4
20260830231830 19 50 0.0 0.0 0.00 0.00 0.00 93 1018.1
20260830231330 19 49 0.0 1.6 0.00 0.00 0.00 93 1018.6
20260830230830 19 25 1.6 3.2 0.00 0.00 0.00 92 1018.4
20260830230325 20 24 1.6 1.6 0.00 0.00 0.00 92 1018.4
20260830225825 20 51 1.6 3.2 0.00 0.00 0.00 91 1018.4
20260830225321 20 32 0.0 1.6 0.00 0.00 0.00 92 1018.2
20260830224820 20 37 0.0 0.0 0.00 0.00 0.00 92 1018.3
20260830224314 20 52 0.0 1.6 0.00 0.00 0.00 92 1018.2
20260830223811 20 336 0.0 1.6 0.00 0.00 0.00 92 1018.4
20260830223307 20 6 0.0 1.6 0.00 0.00 0.00 92 1018.2
20260830222801 20 50 0.0 0.0 0.00 0.00 0.00 92 1018.2
20260830222256 20 37 0.0 0.0 0.00 0.00 0.00 92 1018.1
20260830221752 20 19 0.0 0.0 0.00 0.00 0.00 91 1018.1
20260830221249 20 315 0.0 0.0 0.00 0.00 0.00 91 1018.1
20260830220749 20 29 0.0 0.0 0.00 0.00 0.00 91 1018.2
20260830220248 20 69 0.0 1.6 0.00 0.00 0.00 90 1018.2
20260830215747 20 29 0.0 1.6 0.00 0.00 0.00 90 1018.1
20260830215242 20 15 0.0 0.0 0.00 0.00 0.00 89 1018.0
20260830214737 20 56 3.2 3.2 0.00 0.00 0.00 87 1018.0
20260830214237 20 15 0.0 0.0 0.00 0.00 0.00 87 1018.0
20260830213736 20 13 0.0 1.6 0.00 0.00 0.00 88 1018.0
20260830213231 21 48 0.0 0.0 0.00 0.00 0.00 85 1018.0
20260830212727 21 15 0.0 0.0 0.00 0.00 0.00 85 1018.2
20260830212223 21 309 0.0 0.0 0.00 0.00 0.00 84 1018.4
20260830211717 21 6 0.0 1.6 0.00 0.00 0.00 82 1018.3
20260830211216 21 280 1.6 3.2 0.00 0.00 0.00 80 1018.4
20260830210712 21 246 0.0 0.0 0.00 0.00 0.00 79 1018.4
20260830210212 21 284 1.6 3.2 0.00 0.00 0.00 81 1018.4
20260830205709 21 242 0.0 3.2 0.00 0.00 0.00 79 1018.2
20260830205204 21 204 3.2 4.8 0.00 0.00 0.00 80 1018.3
20260830204704 21 242 0.0 1.6 0.00 0.00 0.00 79 1018.3
20260830204202 21 309 0.0 1.6 0.00 0.00 0.00 80 1018.0
20260830203659 21 55 0.0 0.0 0.00 0.00 0.00 83 1018.2
20260830203154 21 318 1.6 3.2 0.00 0.00 0.00 85 1018.2
20260830202648 21 84 0.0 3.2 0.00 0.00 0.00 80 1018.2
20260830202143 21 9 1.6 3.2 0.00 0.00 0.00 80 1018.3
20260830201643 21 64 1.6 3.2 0.00 0.00 0.00 82 1018.3
20260830201138 21 322 0.0 1.6 0.00 0.00 0.00 81 1018.2
20260830200633 21 43 0.0 1.6 0.00 0.00 0.00 79 1018.0
20260830200133 21 11 1.6 3.2 0.00 0.00 0.00 78 1018.0
20260830195628 21 74 1.6 1.6 0.00 0.00 0.00 78 1018.0
20260830195126 21 343 0.0 1.6 0.00 0.00 0.00 79 1017.9
20260830194626 22 12 1.6 4.8 0.00 0.00 0.00 73 1017.8
20260830194120 22 54 1.6 3.2 0.00 0.00 0.00 73 1018.2
20260830193615 22 19 1.6 3.2 0.00 0.00 0.00 72 1018.2
20260830193109 22 41 3.2 3.2 0.00 0.00 0.00 77 1017.9
20260830192600 22 29 3.2 3.2 0.00 0.00 0.00 75 1018.0
20260830192059 22 47 3.2 6.4 0.00 0.00 0.00 74 1018.3
20260830191554 22 11 3.2 6.4 0.00 0.00 0.00 75 1018.0
20260830191050 23 300 3.2 3.2 0.00 0.00 0.00 79 1017.8
20260830190545 23 333 1.6 3.2 0.00 0.00 0.00 77 1018.2
20260830190040 23 272 3.2 4.8 0.00 0.00 0.00 72 1017.7
20260830185533 24 88 3.2 3.2 0.00 0.00 0.00 74 1017.7
20260830185029 24 274 3.2 3.2 0.00 0.00 0.00 70 1017.8
20260830184527 24 331 0.0 4.8 0.00 0.00 0.00 70 1017.7
20260830184017 25 202 0.0 3.2 0.00 0.00 0.00 70 1017.6
20260830183511 25 302 0.0 4.8 0.00 0.00 0.00 69 1017.8
20260830183008 25 227 3.2 6.4 0.00 0.00 0.00 68 1017.9
20260830182502 25 286 8.0 8.0 0.00 0.00 0.00 67 1017.7
20260830181959 25 183 1.6 4.8 0.00 0.00 0.00 70 1017.9
20260830181454 25 216 6.4 9.7 0.00 0.00 0.00 67 1018.0
20260830180948 25 259 1.6 6.4 0.00 0.00 0.00 66 1017.8
20260830180448 25 217 0.0 4.8 0.00 0.00 0.00 66 1017.9
20260830175947 25 347 3.2 3.2 0.00 0.00 0.00 66 1018.0
20260830175446 25 284 0.0 6.4 0.00 0.00 0.00 66 1018.2
20260830174941 25 264 3.2 8.0 0.00 0.00 0.00 65 1018.3
20260830174437 25 147 0.0 8.0 0.00 0.00 0.00 65 1018.0
20260830173932 25 284 6.4 6.4 0.00 0.00 0.00 65 1018.3
20260830173428 25 299 8.0 12.9 0.00 0.00 0.00 66 1018.1
20260830172924 25 248 3.2 9.7 0.00 0.00 0.00 65 1018.2
20260830172420 25 242 6.4 11.3 0.00 0.00 0.00 62 1018.0
20260830171916 26 299 6.4 9.7 0.00 0.00 0.00 63 1018.4
20260830171411 26 297 3.2 6.4 0.00 0.00 0.00 65 1018.3
20260830170906 25 252 4.8 9.7 0.00 0.00 0.00 64 1018.1
20260830170405 25 257 3.2 14.5 0.00 0.00 0.00 65 1018.2
20260830165903 25 254 6.4 9.7 0.00 0.00 0.00 63 1018.2
20260830165400 26 237 4.8 4.8 0.00 0.00 0.00 63 1018.4
20260830164856 25 131 3.2 6.4 0.00 0.00 0.00 68 1018.4
20260830164352 25 279 3.2 3.2 0.00 0.00 0.00 65 1018.6
20260830163848 25 215 3.2 4.8 0.00 0.00 0.00 67 1018.6
20260830163343 25 281 3.2 12.9 0.00 0.00 0.00 68 1018.7
20260830162838 24 292 3.2 14.5 0.00 0.00 0.00 71 1018.6
20260830162334 24 249 6.4 12.9 0.00 0.00 0.00 68 1018.7
20260830161834 25 220 3.2 6.4 0.00 0.00 0.00 67 1019.0
20260830161333 24 199 1.6 8.0 0.00 0.00 0.00 69 1019.0
20260830160829 24 212 6.4 8.0 0.00 0.00 0.00 68 1019.2
20260830160324 23 260 4.8 11.3 0.00 0.00 0.00 70 1019.0
20260830155820 23 305 8.0 14.5 0.00 0.00 0.00 71 1019.2
20260830155316 23 259 4.8 14.5 0.00 0.00 0.00 70 1019.0
20260830154816 24 236 11.3 12.9 0.00 0.00 0.00 68 1019.1
20260830154312 23 311 3.2 9.7 0.00 0.00 0.00 72 1019.2
20260830153809 23 283 3.2 8.0 0.00 0.00 0.00 71 1019.1
20260830153304 23 345 1.6 14.5 0.00 0.00 0.00 71 1019.2
20260830152802 23 235 3.2 9.7 0.00 0.00 0.00 71 1019.4
20260830152257 22 240 0.0 11.3 0.00 0.00 0.00 73 1019.3
20260830151757 23 269 6.4 14.5 0.00 0.00 0.00 71 1019.2
20260830151256 22 155 3.2 8.0 0.00 0.00 0.00 72 1019.1
20260830150751 22 245 1.6 3.2 0.00 0.00 0.00 75 1019.4
20260830150251 21 299 3.2 6.4 0.00 0.00 0.00 76 1019.6
20260830145745 21 134 3.2 4.8 0.00 0.00 0.00 76 1019.7
20260830145241 21 321 3.2 4.8 0.00 0.00 0.00 76 1019.7
20260830144736 21 246 3.2 4.8 0.00 0.00 0.00 75 1019.5
20260830144232 20 209 0.0 3.2 0.00 0.00 0.00 77 1019.6
20260830143728 20 44 0.0 3.2 0.00 0.00 0.00 77 1019.5
20260830143226 20 132 0.0 6.4 0.00 0.00 0.00 78 1019.7
20260830142721 20 126 0.0 3.2 0.00 0.00 0.00 80 1019.5
20260830142216 19 230 0.0 8.0 0.00 0.00 0.00 81 1019.6
20260830141711 19 213 0.0 4.8 0.00 0.00 0.00 82 1019.3
20260830141206 19 272 1.6 4.8 0.00 0.00 0.00 81 1019.1
20260830140700 18 134 1.6 6.4 0.00 0.00 0.00 82 1019.3
20260830140150 19 97 0.0 3.2 0.00 0.00 0.00 81 1019.4
20260830135646 18 274 0.0 3.2 0.00 0.00 0.00 81 1019.7
20260830135141 18 237 3.2 3.2 0.00 0.00 0.00 83 1019.7
20260830134637 18 261 3.2 3.2 0.00 0.00 0.00 85 1019.5
20260830134131 18 131 0.0 0.0 0.00 0.00 0.00 87 1019.7
20260830133627 17 76 0.0 0.0 0.00 0.00 0.00 86 1019.8
20260830133122 17 50 0.0 0.0 0.00 0.00 0.00 88 1019.8